Вернуться в каталог

SATCOM 3 DEB

АктивенHEO
NORAD 32984·DEBRIS·🇺🇸 United States

Запущен Dec 7, 1979 с Cape Canaveral Space Force Station

Loading…

Ближайшие Пролёты (ближайшие 24 часа)

TLE

СвежийSource: Space-Track

Эпоха: Sep 14, 2026, 12:24 UTC

1 32984U 79101K   26257.51720368 -.00000154  00000-0  00000-0 0  9999
2 32984   9.7674  66.3611 4850501 130.0865 195.1066  1.82640562 91305

Отслеживайте SATCOM 3 DEB в реальном времени с AllMySat

Download on the App Store